This demonstration page uses our WeatherBlox Daily Observations layout. Learn more.

Left ArrowRight Arrow

39.12711, -84.51439

Hourly Observations for February 1, 2021

Temp ( °F °C ) Dew Point ( °F °C ) Humidity (%) Winds ( mph kmh ) Pressure ( in mb ) Visibility ( mi km ) Precip ( " mm )
12:03 am 00:03 Cloudy with Light Snow 33 0.6 30 -1.1 89 89 NNW 13 20 29.88 1012 2 3 0.01 0.25
12:37 am 00:37 Cloudy with Light Snow 33 0.6 30 -1.1 89 89 NNW 9 15 29.88 1012 3 5 0.01 0.25
12:53 am 00:53 Cloudy with Light Snow 33 0.6 30 -1.1 89 89 NNW 8 13 29.86 1011 5 8 0.01 0.25
1:53 am 01:53 Cloudy with Mist and Fog 33 0.6 29 -1.7 85 85 NNW 12 19 29.88 1012 6 10 0.00 0.00
2:08 am 02:08 Cloudy 32 0 29 -1.7 88 88 NNW 10 17 29.91 1013 8 13 0.00 0.00
2:31 am 02:31 Cloudy with Light Snow 32 0 29 -1.7 88 88 NNW 9 15 29.92 1013 2 3 0.00 0.00
2:43 am 02:43 Cloudy with Light Snow 32 0 29 -1.7 88 88 NNW 12 19 29.92 1013 3 4 0.00 0.00
2:53 am 02:53 Cloudy with Light Snow 31 -0.6 28 -2.2 89 89 NNW 10 17 29.90 1013 3 4 0.00 0.00
3:45 am 03:45 Cloudy with Light Snow 30 -1.1 27 -2.8 88 88 NNW 13 20 29.94 1014 3 4 0.00 0.00
3:53 am 03:53 Cloudy with Light Snow 30 -1.1 27 -2.8 88 88 NNW 10 17 29.92 1013 2 3 0.00 0.00
4:03 am 04:03 Cloudy with Light Snow 30 -1.1 27 -2.8 88 88 NNW 12 19 29.94 1014 2 3 0.00 0.00
4:23 am 04:23 Cloudy with Light Snow 30 -1.1 27 -2.8 88 88 NNW 10 17 29.94 1014 3 5 0.00 0.00
4:53 am 04:53 Cloudy with Light Snow 30 -1.1 26 -3.3 85 85 NNW 10 17 29.93 1014 3 5 0.00 0.00
5:04 am 05:04 Cloudy with Light Snow 30 -1.1 26 -3.3 85 85 NNW 10 17 29.96 1015 3 4 0.00 0.00
5:41 am 05:41 Cloudy with Light Snow 30 -1.1 26 -3.3 85 85 N 12 19 29.97 1015 3 5 0.00 0.00
5:51 am 05:51 Cloudy with Light Snow 30 -1 27 -3 86 86 NNW 12 19 29.98 1015 3 4 0.00 0.00
5:53 am 05:53 Cloudy with Light Snow 30 -1.1 26 -3.3 85 85 NNW 10 17 29.96 1015 3 4 0.00 0.00
6:04 am 06:04 Cloudy with Light Snow 30 -1.1 25 -3.9 82 82 NNW 13 20 29.98 1015 4 6 0.00 0.00
6:53 am 06:53 Cloudy with Light Snow 30 -1.1 25 -3.9 82 82 NNW 15 24 29.98 1015 6 10 0.00 0.00
7:53 am 07:53 Cloudy with Light Snow 29 -1.7 25 -3.9 85 85 N 14 22 30.00 1016 7 11 0.00 0.00
8:53 am 08:53 Cloudy with Light Snow 29 -1.7 24 -4.4 82 82 NNW 10 17 30.02 1017 7 11 0.00 0.00
9:53 am 09:53 Cloudy with Light Snow 29 -1.7 24 -4.4 82 82 NNW 10 17 30.03 1017 6 10 0.00 0.00
10:53 am 10:53 Cloudy with Light Snow 29 -1.7 24 -4.4 82 82 NNW 10 17 30.04 1017 3 5 0.00 0.00
11:53 am 11:53 Cloudy 30 -1.1 23 -5 75 75 NNW 14 22 30.04 1017 9 14 0.00 0.00
12:53 pm 12:53 Cloudy 30 -1.1 23 -5 75 75 NW 9 15 30.03 1017 7 11 0.00 0.00
1:53 pm 13:53 Cloudy with Light Snow 30 -1.1 24 -4.4 79 79 NNW 13 20 30.03 1017 3 5 0.00 0.00
1:58 pm 13:58 Cloudy with Light Snow 30 -1.1 24 -4.4 79 79 NNW 10 17 30.05 1018 2 3 0.00 0.00
2:10 pm 14:10 Cloudy with Light Snow 30 -1.1 25 -3.9 82 82 N 12 19 30.05 1018 3 5 0.00 0.00
2:53 pm 14:53 Cloudy with Haze 30 -1.1 23 -5 75 75 NNW 13 20 30.04 1017 3 5 0.00 0.00
3:53 pm 15:53 Cloudy 30 -1.1 22 -5.6 72 72 NNW 14 22 30.05 1018 10 16 0.00 0.00
4:53 pm 16:53 Cloudy 29 -1.7 22 -5.6 75 75 NNW 10 17 30.06 1018 10 16 0.00 0.00
5:53 pm 17:53 Cloudy 29 -1.7 22 -5.6 75 75 NNW 7 11 30.08 1019 10 16 0.00 0.00
6:53 pm 18:53 Cloudy 29 -1.7 21 -6.1 72 72 NW 10 17 30.09 1019 10 16 0.00 0.00
7:53 pm 19:53 Cloudy with Light Snow 28 -2.2 23 -5 81 81 NNW 5 7 30.10 1019 3 4 0.00 0.00
8:12 pm 20:12 Cloudy with Light Snow 28 -2.2 24 -4.4 85 85 NW 3 6 30.12 1020 2 3 0.00 0.00
8:32 pm 20:32 Cloudy with Light Snow 29 -1.7 24 -4.4 82 82 NNW 6 9 30.12 1020 3 4 0.00 0.00
8:40 pm 20:40 Cloudy with Light Snow 29 -1.7 24 -4.4 82 82 NNW 5 7 30.12 1020 4 6 0.00 0.00
8:53 pm 20:53 Cloudy with Light Snow 29 -1.7 25 -3.9 85 85 Calm 30.11 1020 4 6 0.00 0.00
9:53 pm 21:53 Cloudy with Light Snow 29 -1.7 25 -3.9 85 85 WNW 6 9 30.11 1020 5 8 0.00 0.00
10:06 pm 22:06 Cloudy with Light Snow 30 -1.1 26 -3.3 85 85 NNW 6 9 30.12 1020 2 3 0.00 0.00
10:15 pm 22:15 Cloudy with Light Snow 30 -1.1 26 -3.3 85 85 NNW 8 13 30.12 1020 3 4 0.00 0.00
10:24 pm 22:24 Cloudy with Light Snow 30 -1.1 26 -3.3 85 85 NNW 6 9 30.12 1020 4 6 0.00 0.00
10:53 pm 22:53 Cloudy with Light Snow 30 -1.1 26 -3.3 85 85 NW 6 9 30.11 1020 4 6 0.00 0.00
11:53 pm 23:53 Cloudy with Light Snow 29 -1.7 24 -4.4 82 82 NNW 12 19 30.11 1020 4 6 0.00 0.00

Powered by AerisWeather